Weather in Aleksandrovka

Russia / Orenburg Oblast     53°04′44″N   53°19′49″E
temp.,
°C
wind,
m/s
gust,
m/s
humid.,
%
clouds,
%
prec.,
mm/h
press.,
hPa
HPBL,
m
27 september, mon
mon2723:00+10ese2267100 0.0 100513
02:00+9ene2269100 0.0 100531
05:00+10e2466100 0.0 1004109
08:00+10e6116197 0.0 1004423
11:00+10ese71054100 0.0 1005812
14:00+12e7938100 0.0 10071412
17:00+13ene8934100 0.0 10071735
20:00+7ene101453100 0.0 1011781
28 september, tue
tue2823:00+4ene81176100 0.0 1013809
02:00+3ne71178100 0.0 1014879
05:00+4ne7117582 0.1 1015924
08:00+4ne81272100 0.0 1017984
11:00+5ne81059100 0.0 10181226
14:00+9ne7943100 0.0 10191770
17:00+9ne784394 0.0 10201819
20:00+5nne4104924 0.0 1022247
29 september, wed
wed2923:00+4ne5125819 0.0 1024391
02:00+3nne4106868 0.0 1025335
05:00+1nne4107785 0.0 1025301
08:00+1nne3107766 0.0 1026309
11:00+6ne69535 0.0 10271068
14:00+9ne673993 0.0 10261867
17:00+9nne673695 0.0 10261926
20:00+5nne49535 0.0 1028207
30 september, thu
thu3023:00+3ne33615 0.0 102949
02:00+2nne32695 0.0 103027
05:00+1nne32735 0.0 103127
08:00+1n22735 0.0 103235
11:00+7nne344968 0.0 1032630
14:00+9n3338100 0.0 10311467
17:00+10n34355 0.0 10301660
20:00+5nnw224815 0.0 103111
1 october, fri
fri123:00+4nw22565 0.0 103110
02:00+3wnw116627 0.0 103110
05:00+3w11688 0.0 103110
08:00+2w117434 0.0 103110
11:00+7w3464100 0.0 1031372
14:00+8w347184 0.0 1031454
17:00+11w3459100 0.0 1030953
20:00+9wnw2372100 0.0 103061